Hourly Data Report for October 27, 2013

All times are specified in Local Standard Time (LST). Add 1 hour to adjust for Daylight Saving Time where and when it is observed.

IQALUIT CLIMATE
NUNAVUT

63°44'50.000" N
68°32'40.000" W
33.50 m
2402592
71321
XFB

Download Data

Hourly Data (October 2013)
Hourly Data Report for October 27, 2013
Temp Definition
°C
Dew Point Temp Definition
°C
Rel Hum Definition
%
Wind Dir Definition
10's deg

Wind Spd Definition
km/h
Visibility Definition
km
Stn Press Definition
kPa
Hmdx Definition


Wind Chill Definition


Weather Definition


TIME
00:00 -4.4 -5.0 96 35 6   100.10   -7 LegendNANA
01:00 -4.8 -5.9 92 32 4   100.11   -7 LegendNANA
02:00 -4.4 -5.5 92 36 4   100.13   -6 LegendNANA
03:00 -4.1 -5.7 89 36 2   100.14   -5 LegendNANA
04:00 -4.6 -7.1 83 36 4   100.14   -6 LegendNANA
05:00 -5.4 -7.3 86 36 6   100.15   -8 LegendNANA
06:00 -5.2 -7.2 86 2 6   100.15   -8 LegendNANA
07:00 -4.5 -6.9 83 6 9   100.17   -8 LegendNANA
08:00 -4.0 -6.1 85 6 6   100.17   -7 LegendNANA
09:00 -3.6 -5.5 87 8 7   100.15   -7 LegendNANA
10:00 -3.3 -4.5 91 12 9   100.15   -7 LegendNANA
11:00 -2.9 -3.7 94 11 11   100.12   -7 LegendNANA
12:00 -2.7 -3.2 96 17 6   100.11   -5 LegendNANA
13:00 -3.0 -3.7 95 18 6   100.11   -5 LegendNANA
14:00 -3.4 -4.0 96 18 6   100.11   -6 LegendNANA
15:00 -3.5 -4.0 96 18 4   100.09   -5 LegendNANA
16:00 -4.4 -4.6 99 23 2   100.07   -5 LegendNANA
17:00 -4.5 -4.5 100 34 6   100.06   -7 LegendNANA
18:00 -5.0 -5.0 100 34 6   100.06   -8 LegendNANA
19:00 -4.4 -4.4 100 33 6   100.04   -7 LegendNANA
20:00 -4.2 -4.4 99 32 7   100.01   -7 LegendNANA
21:00 -4.5 -4.6 99 32 9   99.97   -8 LegendNANA
22:00 -5.1 -5.3 98 32 7   99.95   -8 LegendNANA
23:00 -5.4 -5.7 98 32 9   99.92   -9 LegendNANA

Notes on Data Quality.

Legend

  • E = Estimated
  • M = Missing
  • NA = Not Available
  • ‡ = Partner data that is not subject to review by the National Climate Archives
Date modified: